EST,Max TemperatureF,Mean TemperatureF,Min TemperatureF,Max Dew PointF,MeanDew PointF,Min DewpointF,Max Humidity, Mean Humidity, Min Humidity, Max Sea Level PressureIn, Mean Sea Level PressureIn, Min Sea Level PressureIn, Max VisibilityMiles, Mean VisibilityMiles, Min VisibilityMiles, Max Wind SpeedMPH, Mean Wind SpeedMPH, Max Gust SpeedMPH,PrecipitationIn, CloudCover, Events, WindDirDegrees
2014-2-1,67,53,38,37,25,10,54,33,12,30.10,30.02,29.94,10,10,10,13,5,22,0.00,3,,171
2014-2-2,53,43,32,48,39,30,100,80,59,30.15,30.03,29.93,10,4,0,12,5,17,0.63,8,Fog-Rain,313
2014-2-3,32,31,29,31,28,27,92,89,85,30.32,30.14,29.96,10,3,0,13,2,23,0.76,8,Fog-Rain-Snow,15
2014-2-4,33,31,28,32,29,26,100,96,92,30.30,30.09,29.86,5,2,0,9,3,15,0.20,8,Fog-Rain,49
2014-2-5,38,31,23,37,29,17,100,87,74,30.34,29.91,29.70,10,4,0,17,7,29,0.56,8,Fog-Rain-Snow,262
2014-2-6,27,25,23,20,19,17,88,78,68,30.45,30.36,30.30,10,5,1,8,2,11,0.01,8,Snow,313
2014-2-7,27,24,20,19,17,14,84,76,68,30.44,30.38,30.31,10,9,2,8,3,10,T,7,Snow,325
2014-2-8,34,27,20,27,20,14,91,80,69,30.32,30.24,30.13,10,6,1,5,1,7,0.03,8,Snow,30
2014-2-9,35,31,27,34,29,23,100,89,78,30.21,30.10,30.04,10,5,1,14,4,21,0.09,8,Rain-Snow,249
2014-2-10,30,23,16,24,18,8,92,71,50,30.36,30.23,30.15,10,7,1,8,3,12,0.03,6,Snow,354
2014-2-11,32,22,11,15,10,6,88,66,43,30.43,30.38,30.33,10,9,7,8,3,13,0.00,0,,43
2014-2-12,37,27,16,28,17,7,78,63,47,30.34,30.10,29.90,10,9,2,8,3,12,0.01,5,Snow,47
2014-2-13,43,36,28,28,24,6,92,59,25,29.90,29.79,29.73,10,4,0,12,5,17,0.23,7,Fog-Snow,360
2014-2-14,52,42,32,36,28,16,92,62,32,29.79,29.68,29.59,10,8,2,14,6,24,0.25,4,Rain,230
2014-2-15,36,28,20,34,20,14,92,77,62,30.16,29.92,29.60,10,4,1,18,6,28,0.15,8,Rain-Snow,307
2014-2-16,37,30,23,28,23,18,96,80,64,30.27,30.10,30.00,10,8,2,14,4,18,0.03,7,Snow,254
2014-2-17,56,40,23,44,28,18,88,63,38,30.27,30.08,29.83,10,9,6,22,6,33,0.08,3,Rain,201
2014-2-18,60,48,36,31,26,17,76,49,22,30.20,30.07,29.90,10,10,10,17,5,26,0.00,1,,219
2014-2-19,61,54,47,50,41,27,96,65,33,30.09,29.89,29.78,10,9,2,18,7,29,0.19,4,Rain-Thunderstorm,253
2014-2-20,71,58,45,53,43,26,66,54,42,30.02,29.86,29.63,10,10,10,20,8,33,0.00,4,,170
2014-2-21,67,52,37,53,38,17,100,65,29,30.07,29.83,29.66,10,6,1,24,8,41,1.08,5,Rain-Thunderstorm,242
2014-2-22,64,51,37,22,17,15,40,28,16,30.15,30.06,29.98,10,10,10,13,6,19,0.00,0,,212
2014-2-23,64,48,32,33,28,17,70,48,25,30.14,30.05,29.94,10,8,2,14,6,23,0.08,5,Rain-Snow,316
2014-2-24,42,33,23,30,16,6,92,59,25,30.29,30.21,30.14,10,10,10,12,4,16,0.00,2,,311
2014-2-25,42,35,28,19,15,10,69,53,37,30.19,30.12,30.04,10,10,10,12,3,15,0.00,6,,322
2014-2-26,32,25,18,21,14,2,84,58,32,30.12,30.04,29.94,10,5,1,13,6,18,0.06,6,Snow,297
2014-2-27,37,27,16,10,5,-2,59,44,29,30.12,29.98,29.90,10,10,10,16,7,25,0.00,0,,268
2014-2-28,43,28,13,9,5,1,59,40,20,30.24,30.15,30.09,10,10,10,7,3,15,0.00,0,,55